Temp_Advection
nan nan nan nan nan nan nan nan nan nan nan nan nan nan nan nan nan nan nan nan nan nan nan nan nan nan nan nan nan nan nan nan nan nan nan nan nan nan nan nan nan nan nan nan nan
nan -0 -0 -0 -0 -0 -0 0 -0 0 -0 0 0 -0 -0 -0 -0 -1 -1 -0 -0 0 0 0 0 0 0 0 0 0 -0 -1 -1 1 -0 -1 -1 -2 -0 -0 0 1 0 0 nan
nan -0 -0 -1 -1 -0 -0 0 0 -0 0 -0 -0 -0 0 0 -0 -2 -1 -0 0 0 0 0 0 0 0 0 -0 -0 -1 -1 -0 0 -0 -1 -1 -1 -0 -0 -0 -0 -1 -0 nan
nan -0 -0 0 -0 -0 -0 -0 0 0 0 -0 -0 0 0 0 -0 1 0 0 -0 0 0 0 0 -0 0 0 -0 0 -1 -0 1 0 -0 -0 -2 -1 -0 0 -0 -0 -0 -0 nan
nan -0 -0 0 0 -0 -0 -0 0 -0 -0 0 -0 0 0 -0 -1 -0 0 -0 -0 1 0 -0 -0 -0 -0 -0 0 -0 -0 -0 0 -0 -0 0 -2 -2 -0 0 0 1 1 0 nan
nan -0 0 0 0 0 -0 -0 0 -0 0 0 -0 0 0 -0 -0 0 0 -1 -0 0 -0 -1 -0 -0 -1 -0 -0 -0 -0 1 0 -0 -0 -1 -1 -2 0 0 0 0 -0 0 nan
nan -0 0 0 -0 -0 -0 -0 0 -0 -0 -0 -0 0 -0 -1 -0 0 -0 -0 0 0 -0 -1 -0 -0 -0 -0 0 0 0 0 -0 -0 -0 -1 -0 -0 1 0 0 0 -0 -0 nan
nan -0 -0 -0 -0 -0 -0 -0 0 0 -0 -0 0 0 -0 0 0 0 -0 -0 0 0 -0 0 0 -0 0 0 0 0 0 0 -0 0 -0 0 0 -0 -0 0 0 0 0 0 nan
nan 1 0 0 -0 -0 0 0 0 0 0 0 0 -0 -0 0 0 0 -0 -0 -0 0 0 0 0 0 0 0 -0 -0 0 0 0 0 0 0 -0 -0 -0 0 -0 0 0 0 nan
nan 0 0 0 -0 -0 0 0 -0 0 -0 -0 -0 -0 0 -0 -0 -0 -0 0 0 0 0 -0 -0 0 0 0 -0 -1 -0 -0 0 0 0 0 -0 -0 0 0 0 -0 0 -0 nan
nan -0 0 0 0 0 0 0 -0 0 0 -0 0 0 -0 -0 -0 0 0 0 0 -0 0 -0 0 -1 -0 -0 0 -0 0 0 -0 -0 -0 0 -0 -0 -0 0 -0 -0 0 -0 nan
nan -1 0 0 -0 -0 -0 -0 -0 0 -0 -0 0 0 -0 -0 -0 0 0 -0 0 -0 0 -0 -0 -0 0 0 0 0 -0 0 0 0 0 0 0 0 0 -0 -1 -0 -0 -0 nan
nan 0 -0 0 -0 -0 -0 -0 -0 -0 0 -0 -0 -0 0 -0 0 0 0 -0 -0 -0 -0 -0 -0 0 0 0 0 0 -0 -0 0 0 -0 -0 -0 0 -0 -0 -0 -0 0 1 nan
nan 1 0 0 0 -0 -0 -0 0 -0 -0 0 -0 -0 -0 -0 0 0 0 -0 0 -0 0 0 0 0 0 -0 -0 0 -0 -0 0 -0 0 0 0 -0 0 0 0 -0 1 1 nan
nan 0 0 0 0 0 -0 0 -0 -0 0 0 0 0 0 -0 0 0 0 0 -0 -0 -0 0 1 0 0 0 0 -0 0 0 0 0 0 0 0 -0 0 -0 -0 0 0 0 nan
nan 0 0 0 0 -0 0 0 0 0 0 0 0 0 0 0 -0 -0 0 0 -0 -0 0 -0 -0 0 0 0 0 -0 -0 -0 -0 -0 0 0 0 -0 -0 -0 0 0 0 1 nan
nan -0 0 0 -0 -0 -0 0 0 1 -0 0 0 -0 -0 -0 -0 -0 -0 -0 -0 -0 0 0 0 0 0 0 0 -0 -0 -0 0 0 -0 0 0 -1 0 0 0 -0 0 1 nan
nan -0 -0 -0 -0 0 0 -0 1 -0 -0 -0 0 -0 0 0 0 -0 -0 -0 0 -0 0 0 -0 -0 -0 0 0 0 -0 -0 0 0 0 0 -0 -0 0 -1 -0 -1 -0 0 nan
nan -0 -0 0 0 0 0 0 0 -0 -0 -0 -0 0 0 -0 -0 0 0 0 -0 -0 -0 0 0 0 0 0 0 0 0 -0 -0 -0 0 -0 -0 -0 -0 0 1 2 1 0 nan
nan -0 -0 0 0 0 -0 -0 -0 -0 -0 -0 -0 -0 -0 0 -0 -0 0 0 -0 -0 -0 -0 0 -0 0 0 -0 -0 -0 -0 0 0 -0 -0 -0 -0 -0 -0 -0 0 0 0 nan
nan 0 -0 -0 0 0 -0 -0 -1 -1 -0 -0 -0 0 0 -0 -0 -0 0 0 -0 -0 -0 -0 -0 -0 0 -0 -0 -0 0 -0 -0 0 0 0 -0 -0 -0 -0 -0 -0 -0 -0 nan
nan -0 -0 -0 0 -0 0 -0 -0 0 -0 0 -0 -0 0 -0 -0 -0 0 0 0 -0 -0 -0 -0 0 0 -0 0 -0 0 -0 -0 0 0 0 -0 -0 0 0 -0 -0 -0 0 nan
nan -0 -0 0 -0 0 -0 -0 -0 -0 -0 0 -0 0 -0 -0 -0 -0 0 0 0 -0 -0 -0 -0 0 0 -0 -0 0 0 0 -0 -0 -0 0 -0 0 0 0 0 -0 -0 0 nan
nan -0 -0 -0 -0 -0 -0 -0 -0 -0 -0 -0 -0 -0 -0 -0 -0 -0 0 0 -0 0 0 -0 -0 -0 -0 -0 0 -0 -0 0 -0 -0 -0 -1 -0 0 -0 0 0 -0 -0 0 nan
nan -0 -0 -0 -0 -0 -0 -0 -0 0 -0 -0 -0 -0 -0 -0 -0 -0 0 -0 -0 -0 -0 -0 -0 0 -0 -0 -0 -0 -0 0 -0 -1 -0 -0 0 -0 -0 -0 -0 -0 0 1 nan
nan -0 -0 -0 -0 -0 0 -0 -0 -0 0 -0 0 -0 -0 0 0 -0 -0 -0 0 -0 -0 -0 -0 0 -0 0 -0 0 0 0 -0 0 -0 0 -0 -0 -0 -0 -0 0 0 0 nan
nan nan nan nan nan nan nan nan nan nan nan nan nan nan nan nan nan nan nan nan nan nan nan nan nan nan nan nan nan nan nan nan nan nan nan nan nan nan nan nan nan nan nan nan nan
Wind_Speed
17 19 21 22 21 19 18 17 16 15 14 14 14 12 11 12 14 17 20 22 21 11 10 13 16 15 17 10 18 15 5 10 13 10 1 19 9 6 3 9 9 5 15 25 28
20 20 22 24 25 22 20 17 14 14 13 13 12 12 11 12 15 23 19 16 23 15 10 14 19 17 11 10 12 6 5 17 25 22 6 17 18 19 2 10 9 15 19 25 27
21 23 25 27 28 25 20 18 14 12 11 10 11 11 10 9 11 22 21 12 18 23 15 14 17 17 10 13 9 9 18 19 13 5 7 8 20 17 3 2 14 23 23 22 26
22 25 28 27 26 23 18 14 11 9 8 8 8 8 6 6 5 10 10 11 13 27 23 16 17 13 7 8 18 9 13 22 27 8 2 6 21 18 10 3 11 14 19 21 22
22 25 27 27 23 17 12 6 6 7 6 5 6 6 7 9 16 12 5 6 16 30 28 27 22 20 7 8 18 3 12 12 14 23 26 25 21 19 7 4 7 21 19 15 13
22 25 24 23 20 15 8 1 3 3 3 2 1 4 8 6 9 5 17 13 14 33 32 30 19 22 16 10 13 11 7 19 4 11 16 18 19 20 9 8 19 21 15 12 10
21 22 21 19 18 15 9 4 1 3 3 2 1 2 6 13 2 7 11 7 12 27 29 29 12 24 10 3 12 5 14 4 18 11 8 19 13 8 13 11 9 14 15 12 10
20 20 20 16 13 12 9 4 2 2 3 4 1 3 5 7 4 5 4 2 7 21 26 29 18 28 4 3 8 6 6 7 11 10 10 11 8 7 12 8 9 7 9 11 12
20 19 18 14 10 9 9 6 3 5 4 3 2 3 5 4 5 6 10 2 2 7 24 21 22 10 12 3 3 2 6 6 7 17 5 7 3 7 9 11 15 13 10 9 11
20 15 15 11 8 7 5 2 2 5 5 5 3 2 1 3 4 5 6 5 7 3 16 14 10 4 4 6 15 20 7 5 11 12 7 6 5 3 2 10 18 18 16 14 12
20 15 11 8 7 9 4 1 2 1 5 4 3 2 4 6 8 1 9 7 3 12 9 13 9 20 21 9 2 10 6 8 3 6 5 7 3 10 11 3 11 19 19 15 10
23 17 10 6 3 8 8 2 2 2 3 3 9 11 8 6 2 5 12 5 3 3 3 6 16 9 9 9 3 12 6 6 1 4 7 6 13 8 10 8 11 14 19 17 13
26 18 9 6 1 4 7 4 4 3 2 5 4 2 3 3 0 6 10 10 2 2 1 10 8 11 9 7 6 3 10 4 4 2 2 4 7 5 8 10 19 19 20 20 15
27 18 7 6 2 2 3 2 1 2 2 0 1 2 1 1 1 6 9 4 3 2 0 1 11 12 8 7 4 2 6 6 6 5 5 4 4 6 9 9 9 23 19 17 15
24 18 6 4 1 2 4 1 2 2 2 5 1 1 1 1 3 6 12 4 6 4 3 3 14 15 12 8 5 4 4 8 5 6 4 1 0 6 3 9 11 15 20 18 16
23 13 6 4 3 0 2 1 3 3 6 2 2 0 2 4 3 2 9 4 8 8 6 6 7 5 2 3 3 2 5 7 5 3 1 5 6 4 6 7 10 6 18 19 21
19 6 6 4 3 0 1 1 3 6 3 4 2 3 5 5 3 3 3 1 4 5 4 6 4 2 3 5 2 1 6 2 2 2 5 3 4 11 5 5 8 12 23 23 23
13 3 5 7 5 2 1 3 8 1 1 2 3 5 3 3 1 7 7 4 4 11 5 4 5 2 3 3 3 4 4 5 5 3 3 1 7 7 4 14 18 29 29 24 21
6 5 7 7 5 1 2 5 7 5 3 3 4 1 3 2 1 4 3 1 3 3 5 5 1 0 2 2 1 3 2 2 5 3 3 4 6 7 3 3 16 23 26 24 21
3 5 10 9 6 3 3 2 3 5 2 1 2 0 3 3 2 2 1 2 3 2 3 4 5 2 4 3 3 3 2 2 2 3 4 4 5 5 3 8 8 11 21 22 19
4 3 9 9 4 2 3 4 4 8 6 3 2 1 1 2 4 2 2 2 2 3 3 5 4 3 6 7 6 5 4 2 3 4 4 2 6 5 12 13 14 15 25 22 19
3 3 7 10 5 2 1 2 1 3 4 4 2 2 2 2 4 3 3 2 2 7 4 3 4 4 4 3 7 1 5 4 4 4 1 3 5 4 7 7 13 18 21 20 18
3 2 5 6 3 3 3 3 1 2 2 2 2 2 2 2 4 3 3 1 3 4 7 5 2 3 2 2 2 4 4 3 3 3 5 5 5 5 4 9 16 17 18 19 18
3 3 3 3 4 4 4 3 3 1 4 3 3 3 3 4 5 3 2 2 3 3 2 4 3 4 5 4 5 5 8 7 5 3 3 5 3 3 4 9 12 20 20 20 20
5 3 3 3 3 5 4 4 2 2 2 3 4 2 2 1 2 3 2 2 3 1 2 3 3 3 2 3 3 3 6 9 8 11 7 5 6 7 11 10 18 21 18 19 20
4 3 3 3 7 3 2 4 3 5 3 2 1 6 2 3 3 6 4 3 3 0 2 2 2 2 3 1 2 2 6 9 9 5 5 3 5 6 13 11 13 17 18 21 21
8 4 2 4 4 1 2 4 5 9 1 1 1 3 1 1 2 2 3 5 4 6 2 2 4 3 3 1 2 6 10 11 8 6 8 9 7 2 5 9 17 19 21 22 19
Wind_Direction
344 337 330 324 316 312 303 299 283 279 281 280 281 276 260 258 248 240 243 233 211 204 206 204 206 201 170 156 182 161 167 221 227 239 135 350 1 1 267 124 119 131 155 160 160
338 336 329 323 318 313 301 286 277 277 268 278 277 268 263 259 261 246 243 238 209 193 219 207 204 199 174 158 157 137 205 205 226 226 28 316 308 310 347 110 101 120 136 158 160
343 339 332 327 321 318 305 287 273 275 262 261 268 271 267 262 275 267 240 238 221 208 210 209 210 194 187 168 165 178 209 226 228 237 19 298 290 283 293 42 152 148 148 159 172
344 341 337 332 327 316 310 290 269 276 265 259 264 264 250 230 228 77 168 175 260 211 211 192 192 182 194 175 194 170 203 196 222 204 178 291 284 266 323 125 173 180 163 159 168
348 344 346 343 344 329 317 305 254 271 256 250 259 233 204 223 238 199 198 234 226 208 206 199 187 185 192 168 197 180 187 185 206 211 237 252 264 265 322 96 144 178 167 161 161
352 351 356 1 5 9 352 328 209 200 213 249 249 207 206 236 261 268 239 317 223 198 201 197 193 184 188 181 180 202 222 200 205 231 203 186 246 268 201 187 131 143 150 157 164
350 357 0 8 18 24 24 15 152 154 155 163 149 194 221 246 259 177 239 307 186 193 201 201 184 186 183 166 187 198 197 100 199 232 220 191 204 237 153 144 156 159 162 163 154
348 357 355 1 11 19 23 11 144 126 170 164 193 221 251 3 3 260 178 256 155 193 208 201 185 194 138 214 143 167 129 153 218 201 218 181 224 222 228 207 207 191 184 182 193
348 350 1 358 25 23 17 32 104 146 163 179 269 225 275 55 36 47 220 236 245 213 204 191 192 187 214 180 105 248 149 170 177 202 175 185 207 244 235 219 220 221 212 205 208
344 350 356 350 352 7 357 342 105 140 116 120 176 272 61 335 347 352 201 176 207 207 187 195 169 147 164 178 185 188 180 163 183 196 186 199 217 215 212 234 226 228 237 247 251
346 343 349 2 346 354 358 224 95 215 185 233 326 299 310 317 320 121 175 177 196 286 156 169 150 191 191 174 137 146 124 165 201 171 146 207 190 257 260 231 232 234 236 239 249
347 343 332 352 16 347 18 82 119 284 320 267 272 263 273 291 343 150 159 116 137 260 148 165 194 155 121 155 127 159 149 184 118 212 176 200 233 211 260 245 225 228 224 228 225
348 343 328 329 163 18 13 71 125 25 356 333 358 299 275 325 69 159 175 125 120 359 18 182 153 131 152 168 169 177 189 158 149 96 51 119 292 224 245 232 242 240 234 229 225
345 340 331 331 227 33 320 317 305 274 269 40 236 315 286 264 116 160 154 54 48 209 115 95 143 145 149 180 137 132 186 181 166 132 189 166 258 243 215 236 227 236 223 203 203
342 339 343 304 243 353 346 232 317 306 51 347 356 234 257 293 127 172 167 117 171 159 234 174 146 152 165 177 131 208 183 184 163 138 125 231 287 268 125 228 229 209 206 200 188
342 343 350 324 257 132 324 283 254 48 18 339 280 36 359 22 80 199 168 154 191 172 89 57 62 70 99 84 82 357 92 52 59 80 257 211 172 263 205 207 214 192 199 188 175
344 355 358 351 5 64 206 291 37 66 232 355 321 185 161 194 205 116 122 195 176 128 104 56 22 47 77 92 25 119 97 62 142 206 217 158 173 246 251 231 198 171 172 165 168
348 75 25 13 16 290 225 77 62 321 313 312 312 78 49 4 73 180 156 162 47 108 106 133 155 342 359 116 182 207 130 147 193 205 216 219 226 240 247 260 200 176 166 166 169
4 112 38 7 5 325 208 55 182 206 218 332 310 284 83 173 156 43 27 69 117 142 117 134 119 46 14 89 89 231 164 192 104 36 62 223 288 310 50 159 154 166 169 168 172
84 117 26 6 329 336 82 141 238 183 227 205 340 232 100 307 167 167 107 30 100 109 152 155 109 233 127 90 294 243 191 164 349 137 256 270 271 236 203 174 156 155 165 169 178
118 111 13 9 329 348 112 190 234 235 209 231 331 12 48 151 179 72 28 43 153 165 32 136 86 159 140 201 178 192 193 173 125 145 197 270 261 235 201 183 172 165 173 180 183
86 52 10 3 0 66 29 171 290 303 167 255 217 279 52 61 65 82 126 17 23 137 142 168 124 158 190 199 222 222 197 161 144 227 205 156 274 320 223 165 163 167 182 185 192
55 59 19 9 32 353 312 312 185 296 273 297 277 55 335 47 105 116 136 143 80 126 168 182 148 97 61 353 325 220 216 150 120 76 211 151 261 346 140 148 180 171 180 184 193
48 40 19 59 36 356 12 280 285 293 291 289 292 349 35 40 38 126 91 22 38 98 62 135 127 152 182 208 138 194 198 197 148 151 185 221 269 302 185 156 169 173 180 191 194
56 58 24 336 6 344 320 301 327 299 268 305 325 310 314 80 63 99 103 8 9 44 83 95 129 96 358 104 95 200 190 182 200 213 203 227 212 212 201 183 182 186 191 193 199
66 27 16 284 306 305 22 0 11 344 2 335 336 330 333 138 197 198 147 183 199 66 73 18 149 102 353 167 132 259 235 210 214 218 248 214 260 224 206 200 190 198 198 200 207
57 57 337 311 325 326 30 337 331 341 318 6 319 356 41 185 39 20 192 183 190 153 133 97 129 97 259 15 5 306 224 204 213 205 196 210 219 199 164 192 195 191 199 207 214
Height
1508 1506 1503 1499 1496 1493 1491 1490 1489 1489 1488 1487 1487 1487 1488 1488 1488 1488 1488 1492 1497 1500 1501 1504 1507 1509 1510 1512 1514 1518 1527 1534 1533 1531 1526 1522 1525 1517 1516 1514 1516 1517 1519 1524 1529
1506 1503 1499 1496 1491 1489 1487 1485 1484 1484 1484 1484 1483 1484 1485 1485 1485 1483 1486 1489 1494 1497 1500 1502 1504 1507 1508 1510 1513 1516 1528 1524 1520 1519 1533 1526 1523 1524 1520 1515 1517 1518 1521 1525 1529
1506 1502 1497 1492 1488 1483 1481 1480 1479 1480 1480 1481 1481 1481 1482 1483 1483 1476 1483 1487 1491 1496 1499 1502 1505 1507 1509 1510 1512 1515 1517 1521 1519 1524 1531 1532 1525 1525 1523 1520 1517 1518 1522 1525 1528
1503 1499 1494 1487 1481 1478 1475 1474 1476 1476 1477 1478 1479 1480 1481 1482 1485 1477 1477 1484 1488 1491 1496 1499 1503 1507 1508 1508 1509 1513 1515 1517 1518 1526 1535 1537 1529 1525 1523 1519 1517 1519 1520 1524 1527
1500 1496 1489 1484 1477 1474 1472 1471 1472 1474 1475 1476 1477 1478 1480 1480 1474 1475 1476 1477 1479 1484 1489 1495 1498 1503 1505 1504 1509 1511 1510 1515 1520 1525 1529 1536 1536 1527 1521 1519 1517 1518 1521 1524 1528
1498 1493 1488 1482 1477 1473 1471 1471 1471 1472 1473 1475 1476 1477 1479 1479 1474 1474 1475 1475 1473 1478 1486 1492 1496 1502 1505 1503 1507 1506 1511 1513 1520 1522 1524 1528 1533 1526 1522 1523 1520 1520 1523 1524 1527
1496 1491 1487 1482 1479 1475 1473 1472 1472 1472 1473 1474 1475 1475 1476 1475 1474 1474 1473 1475 1473 1478 1484 1490 1495 1500 1500 1503 1504 1508 1512 1517 1520 1519 1520 1521 1527 1526 1520 1520 1522 1522 1523 1525 1527
1496 1491 1486 1482 1479 1476 1474 1473 1473 1473 1472 1473 1474 1474 1473 1473 1472 1473 1473 1474 1474 1479 1484 1490 1494 1500 1499 1502 1504 1508 1511 1521 1514 1518 1517 1517 1522 1517 1519 1519 1521 1522 1522 1524 1526
1494 1490 1487 1483 1480 1478 1476 1474 1473 1472 1472 1472 1473 1473 1472 1472 1472 1472 1474 1475 1477 1479 1482 1487 1491 1496 1500 1502 1510 1510 1515 1517 1514 1513 1512 1514 1517 1510 1514 1516 1517 1519 1521 1523 1524
1490 1487 1484 1482 1481 1478 1476 1474 1473 1473 1472 1471 1472 1475 1471 1472 1471 1471 1471 1475 1476 1478 1481 1483 1488 1495 1497 1500 1499 1499 1507 1510 1508 1508 1510 1512 1514 1508 1510 1511 1512 1514 1518 1520 1521
1488 1484 1480 1478 1479 1478 1476 1475 1477 1477 1473 1472 1472 1471 1470 1471 1470 1470 1473 1474 1476 1475 1473 1476 1483 1485 1481 1492 1492 1497 1503 1506 1507 1504 1510 1512 1512 1508 1508 1509 1509 1510 1514 1517 1518
1487 1482 1479 1476 1475 1476 1475 1474 1473 1475 1472 1471 1471 1472 1471 1471 1471 1471 1473 1475 1480 1477 1476 1476 1477 1483 1489 1493 1495 1498 1503 1507 1504 1503 1508 1510 1509 1507 1507 1508 1506 1508 1510 1513 1516
1484 1479 1476 1476 1473 1474 1475 1474 1473 1474 1473 1472 1471 1471 1472 1473 1472 1472 1472 1476 1479 1474 1478 1475 1477 1482 1488 1494 1498 1501 1502 1506 1506 1506 1508 1511 1515 1508 1504 1505 1505 1506 1508 1510 1513
1481 1477 1475 1474 1476 1472 1473 1475 1474 1475 1474 1474 1472 1472 1472 1471 1474 1474 1472 1470 1475 1479 1483 1475 1478 1484 1491 1496 1499 1505 1500 1503 1506 1512 1520 1509 1526 1506 1501 1502 1502 1501 1504 1506 1509
1478 1475 1473 1471 1474 1474 1473 1473 1474 1474 1467 1474 1472 1470 1470 1471 1474 1477 1478 1479 1480 1479 1485 1479 1478 1485 1493 1495 1498 1502 1497 1501 1505 1513 1515 1514 1521 1505 1500 1503 1498 1496 1500 1503 1505
1477 1473 1471 1472 1472 1473 1471 1471 1473 1482 1471 1473 1471 1470 1468 1467 1471 1474 1476 1481 1481 1479 1474 1478 1482 1489 1493 1497 1498 1499 1500 1505 1509 1515 1529 1513 1518 1509 1499 1490 1490 1492 1496 1499 1503
1474 1471 1469 1468 1472 1471 1470 1470 1479 1472 1477 1472 1468 1466 1466 1471 1468 1470 1474 1477 1472 1476 1482 1486 1492 1493 1494 1499 1500 1499 1504 1526 1523 1524 1526 1510 1517 1495 1486 1485 1486 1488 1493 1496 1501
1471 1470 1470 1470 1469 1470 1470 1472 1481 1471 1476 1470 1466 1465 1466 1467 1467 1467 1471 1471 1472 1472 1482 1485 1495 1497 1497 1498 1498 1499 1501 1522 1522 1523 1520 1511 1509 1488 1482 1480 1480 1484 1489 1494 1498
1470 1471 1470 1468 1465 1468 1470 1482 1481 1480 1473 1470 1464 1463 1467 1467 1468 1467 1467 1468 1470 1470 1481 1495 1498 1499 1498 1499 1501 1502 1508 1504 1520 1525 1535 1510 1495 1482 1480 1479 1479 1483 1488 1492 1496
1472 1471 1469 1466 1465 1465 1469 1475 1476 1472 1470 1470 1466 1459 1467 1466 1465 1465 1466 1465 1469 1470 1470 1483 1494 1497 1499 1501 1502 1501 1500 1510 1527 1523 1519 1508 1503 1489 1481 1481 1481 1484 1487 1492 1495
1468 1469 1470 1468 1466 1465 1475 1475 1472 1466 1468 1467 1464 1460 1458 1459 1462 1464 1468 1467 1467 1469 1470 1475 1486 1498 1499 1497 1495 1500 1497 1500 1502 1512 1507 1508 1499 1480 1473 1472 1476 1481 1486 1490 1494
1469 1471 1470 1470 1467 1466 1470 1464 1465 1465 1466 1466 1465 1461 1459 1460 1463 1467 1468 1468 1465 1467 1472 1473 1487 1492 1494 1493 1493 1492 1491 1491 1506 1509 1521 1518 1500 1475 1472 1474 1477 1481 1485 1489 1493
1471 1471 1472 1471 1474 1474 1468 1468 1465 1466 1464 1462 1461 1460 1459 1459 1466 1467 1468 1469 1467 1469 1473 1473 1488 1503 1497 1496 1493 1490 1491 1489 1496 1507 1521 1517 1492 1474 1472 1475 1478 1480 1483 1488 1492
1473 1478 1474 1472 1474 1474 1475 1469 1467 1464 1465 1462 1461 1459 1459 1461 1462 1467 1468 1468 1467 1468 1468 1469 1478 1484 1493 1481 1484 1490 1487 1488 1492 1508 1499 1499 1481 1477 1476 1475 1477 1479 1482 1486 1489
1476 1482 1483 1482 1478 1479 1480 1473 1467 1465 1465 1464 1461 1460 1460 1462 1464 1468 1469 1469 1468 1468 1469 1471 1487 1485 1479 1479 1485 1481 1482 1485 1491 1482 1487 1477 1479 1475 1473 1473 1474 1477 1481 1484 1487
1480 1483 1481 1480 1477 1477 1473 1476 1472 1468 1467 1466 1466 1465 1462 1463 1464 1467 1467 1470 1469 1470 1470 1473 1488 1488 1489 1480 1481 1481 1480 1479 1482 1480 1480 1480 1478 1467 1470 1473 1475 1476 1479 1481 1483
1482 1484 1484 1481 1478 1476 1479 1477 1474 1472 1467 1467 1467 1467 1465 1465 1464 1463 1463 1463 1464 1469 1472 1475 1483 1492 1495 1481 1482 1487 1473 1474 1473 1473 1472 1478 1470 1467 1468 1471 1472 1474 1476 1478 1480